Stations météo

réclame
Mon MeteoGroup
Lüdenscheid, Allemagne (10418): Température de l'air & dewpoint: 17.01.2019 09:00:00 - 23.01.2019 09:00:00 (CET)Lüdenscheid, Allemagne (10418): Température de l'air 5cm & Température de l'air -5cm: 17.01.2019 09:00:00 - 23.01.2019 09:00:00 (CET)Lüdenscheid, Allemagne (10418): Température de l'air -20cm & Température de l'air -100cm: 17.01.2019 09:00:00 - 23.01.2019 09:00:00 (CET)Lüdenscheid, Allemagne (10418): Vitesse du vent & gusts: 17.01.2019 09:00:00 - 23.01.2019 09:00:00 (CET)Lüdenscheid, Allemagne (10418): Direction du vent: 17.01.2019 09:00:00 - 23.01.2019 09:00:00 (CET)Lüdenscheid, Allemagne (10418): reduced air pressure: 17.01.2019 09:00:00 - 23.01.2019 09:00:00 (CET)Lüdenscheid, Allemagne (10418): visibility: 17.01.2019 09:00:00 - 23.01.2019 09:00:00 (CET)Lüdenscheid, Allemagne (10418): Ensoleillement: 17.01.2019 09:00:00 - 23.01.2019 09:00:00 (CET)Lüdenscheid, Allemagne (10418): Quantités de précipitations: 17.01.2019 09:00:00 - 23.01.2019 09:00:00 (CET)
Date & Time tt [°C] td [°C] tt 5cm [°C] tt -5cm [°C] tt -20cm [°C] tt -100cm [°C] ff [km/h] ff [knt] fx [km/h] fx [knt] dd ppp [hPa] vv [km] sd [min] rr [mm]
23.01.2019 09:00:00 -5,0 -7,0 -5,6 -1,8 0,0 5,4 9 5 17 9 E 999,7 9 0 0,0
23.01.2019 08:00:00 -4,9 -6,8 -5,2 -1,8 0,0 5,4 10 6 16 9 ESE 999,7 4,1 0 0,1
23.01.2019 07:00:00 -4,9 -6,8 -5,1 -1,8 0,0 5,4 6 3 11 6 ESE 999,6 3,6 0 0,1
23.01.2019 06:00:00 -4,9 -6,5 -5,0 -1,9 0,0 5,4 7 4 15 8 E 999,9 2,5 0 0,2
23.01.2019 05:00:00 -4,9 -6,5 -4,8 -1,9 0,0 5,5 7 4 16 9 ESE 1000,2 2,5 0 0,1
23.01.2019 04:00:00 -4,6 -6,8 -4,6 -2,0 0,1 5,5 6 3 23 13 ESE 1000,5 6 0 0,0
23.01.2019 03:00:00 -4,5 -7,0 -4,5 -2,0 0,1 5,5 13 7 25 14 SE 1001,1 7 0 0,0
23.01.2019 02:00:00 -4,3 -6,8 -4,5 -2,0 0,1 5,5 9 5 20 11 S 1001,5 8 0 0,0
23.01.2019 01:00:00 -4,2 -6,9 -4,3 -2,1 0,1 5,5 9 5 16 8 SSE 1002,0 9 0 0,0
23.01.2019 00:00:00 -4,2 -6,9 -4,7 -2,1 0,1 5,5 7 4 20 11 S 1002,2 12 0 0,0
22.01.2019 23:00:00 -4,4 -7,2 -4,9 -2,1 0,1 5,5 12 6 22 12 S 1002,9 11 0 0,0
22.01.2019 22:00:00 -4,6 -7,3 -5,1 -2,1 0,1 5,5 15 8 29 16 S 1003,5 11 0 0,0
22.01.2019 21:00:00 -4,9 -7,5 -5,2 -2,1 0,2 5,5 15 8 31 17 S 1004,1 12 0 0,0
22.01.2019 20:00:00 -5,5 -8,2 -6,3 -1,9 0,2 5,5 12 7 26 14 S 1004,5 12 0 0,0
22.01.2019 19:00:00 -5,5 -8,3 -6,0 -1,7 0,2 5,5 9 5 25 13 SE 1004,9 14 0 0,0
22.01.2019 18:00:00 -5,7 -8,5 -6,3 -1,4 0,2 5,6 12 6 25 14 SE 1005,3 13 0 0,0
22.01.2019 17:00:00 -4,8 -8,3 -5,4 -1,2 0,1 5,6 12 6 22 12 SE 1005,6 15 0 0,0
22.01.2019 16:00:00 -3,8 -8,5 -4,0 -1,0 0,1 5,6 14 7 26 14 S 1005,7 17 0 0,0
22.01.2019 15:00:00 -3,4 -8,6 -3,2 -1,0 0,1 5,6 13 7 29 15 SSE 1006,4 18 0 0,0
22.01.2019 14:00:00 -2,0 -10,0 -1,6 -1,1 0,1 5,6 12 6 24 13 S 1006,9 25 51 0,0
22.01.2019 13:00:00 -1,8 -10,4 -1,6 -1,3 0,1 5,6 11 6 22 12 SSE 1007,8 34 45 0,0
22.01.2019 12:00:00 -1,4 -10,5 -0,4 -1,7 0,1 5,6 10 5 27 15 S 1008,9 36 53 0,0
22.01.2019 11:00:00 -1,8 -9,5 -0,6 -2,4 0,2 5,6 10 5 29 16 S 1009,7 38 60 0,0
22.01.2019 10:00:00 -3,1 -10,0 -3,8 -3,1 0,2 5,6 11 6 24 13 SSE 1010,7 30 50 0,0
22.01.2019 09:00:00 -5,0 -8,8 -7,0 -3,5 0,2 5,6 7 4 15 8 ESE 1011,8 20 0 0,0
22.01.2019 08:00:00 -5,0 -8,8 -8,6 -3,5 0,3 5,6 4 2 13 7 SE 1012,4 25 0 0,0
22.01.2019 07:00:00 -5,8 -9,1 -9,3 -3,5 0,3 5,6 4 2 8 4 E 1013,2 25 0 0,0
22.01.2019 06:00:00 -6,0 -9,2 -10,0 -3,4 0,3 5,7 3 1 8 4 ESE 1014,1 27 0 0,0
22.01.2019 05:00:00 -6,4 -9,9 -10,3 -3,3 0,4 5,7 3 2 5 3 E 1015,0 29 0 0,0
22.01.2019 04:00:00 -7,5 -9,6 -10,4 -3,1 0,4 5,7 3 1 4 2 ENE 1016,4 25 0 0,0
22.01.2019 03:00:00 -8,2 -9,4 -10,8 -3,0 0,4 5,7 3 2 7 4 ENE 1017,5 14 0 0,0
22.01.2019 02:00:00 -7,5 -9,0 -10,3 -2,8 0,4 5,7 4 2 6 3 E 1018,2 12 0 0,0
22.01.2019 01:00:00 -6,5 -8,3 -9,9 -2,6 0,5 5,7 3 1 5 3 ENE 1019,0 15 0 0,0
22.01.2019 00:00:00 -6,1 -7,7 -9,1 -2,3 0,5 5,7 2 1 9 5 ENE 1019,8 14 0 0,0
21.01.2019 23:00:00 -6,0 -8,2 -8,2 -2,1 0,5 5,7 7 4 9 5 W 1020,4 14 0 0,0
21.01.2019 22:00:00 -5,4 -7,4 -8,0 -1,8 0,5 5,7 5 3 9 5 W 1020,5 13 0 0,0
21.01.2019 21:00:00 -5,0 -7,0 -7,3 -1,5 0,5 5,7 5 3 9 5 W 1020,7 13 0 0,0
21.01.2019 20:00:00 -4,7 -6,9 -7,6 -1,2 0,5 5,7 4 2 12 7 W 1021,1 13 0 0,0
21.01.2019 19:00:00 -4,4 -7,1 -7,6 -0,9 0,5 5,8 5 3 11 6 W 1021,4 16 0 0,0
21.01.2019 18:00:00 -3,6 -7,0 -6,3 -0,7 0,5 5,8 9 5 12 7 W 1021,5 18 0 0,0
21.01.2019 17:00:00 -1,9 -6,6 -4,8 -0,6 0,5 5,8 8 4 10 5 WSW 1021,3 23 29 0,0
21.01.2019 16:00:00 -0,1 -6,6 0,3 -0,6 0,5 5,8 8 4 13 7 WSW 1021,2 28 60 0,0
21.01.2019 15:00:00 0,3 -6,7 1,8 -0,7 0,5 5,8 7 4 12 7 WSW 1021,5 24 60 0,0
21.01.2019 14:00:00 0,1 -6,8 2,3 -0,9 0,5 5,8 7 4 13 7 WSW 1022,1 36 60 0,0
21.01.2019 13:00:00 -1,5 -7,1 1,2 -1,1 0,5 5,8 9 5 13 7 W 1023,0 29 60 0,0
21.01.2019 12:00:00 -2,8 -7,8 -1,5 -1,6 0,5 5,8 8 5 12 7 W 1024,0 25 60 0,0
21.01.2019 11:00:00 -4,5 -9,0 -3,7 -2,2 0,6 5,8 6 3 8 5 W 1024,6 22 60 0,0
21.01.2019 10:00:00 -5,5 -9,0 -5,3 -2,9 0,6 5,8 1 0 3 1 SSE 1024,5 22 50 0,0
21.01.2019 09:00:00 -8,6 -10,3 -10,8 -3,2 0,6 5,8 1 1 4 2 E 1024,9 22 0 0,0
21.01.2019 08:00:00 -9,0 -10,7 -11,6 -3,1 0,7 5,9 1 1 4 2 SW 1024,5 24 0 0,0
21.01.2019 07:00:00 -9,2 -10,7 -11,8 -2,9 0,7 5,9 0 0 3 1 N 1024,4 24 0 0,0
21.01.2019 06:00:00 -8,4 -9,6 -11,5 -2,8 0,7 5,9 1 1 4 2 ESE 1024,2 26 0 0,0
21.01.2019 05:00:00 -8,7 -10,2 -11,5 -2,6 0,8 5,9 3 2 6 4 WNW 1024,5 26 0 0,0
21.01.2019 04:00:00 -8,3 -9,7 -10,3 -2,4 0,8 5,9 0 0 3 2 N 1024,3 22 0 0,0
21.01.2019 03:00:00 -7,7 -8,9 -10,8 -2,3 0,8 5,9 1 1 5 3 ESE 1024,1 20 0 0,0
21.01.2019 02:00:00 -6,7 -7,9 -10,3 -2,1 0,9 5,9 3 2 4 2 E 1023,7 17 0 0,0
21.01.2019 01:00:00 -7,1 -8,1 -10,0 -1,9 0,9 5,9 1 1 4 2 E 1023,7 15 0 0,0
21.01.2019 00:00:00 -6,0 -7,2 -8,4 -1,6 0,9 5,9 0 0 6 3 N 1023,4 19 0 0,0
20.01.2019 23:00:00 -4,8 -6,8 -8,7 -1,4 0,9 5,9 5 3 5 3 E 1022,7 25 0 0,0
20.01.2019 22:00:00 -4,4 -6,5 -8,4 -1,2 0,9 5,9 4 2 5 3 E 1022,2 26 0 0,0
20.01.2019 21:00:00 -4,3 -6,3 -8,0 -0,9 0,9 5,9 4 2 5 3 E 1021,6 28 0 0,0
20.01.2019 20:00:00 -3,8 -6,3 -7,3 -0,7 0,9 6,0 4 2 5 3 E 1021,0 30 0 0,0
20.01.2019 19:00:00 -3,8 -6,6 -7,9 -0,5 0,9 6,0 4 2 6 3 ESE 1020,5 44 0 0,0
20.01.2019 18:00:00 -2,8 -7,0 -6,6 -0,4 0,9 6,0 5 3 6 3 ENE 1019,8 42 0 0,0
20.01.2019 17:00:00 -1,4 -7,2 -4,8 -0,4 0,9 6,0 2 1 8 5 ESE 1018,9 37 27 0,0
20.01.2019 16:00:00 0,7 -7,9 3,2 -0,4 0,9 6,0 5 3 10 6 ENE 1018,0 60 60 0,0
20.01.2019 15:00:00 0,7 -8,1 3,9 -0,5 0,9 6,0 6 3 14 7 E 1017,8 47 60 0,0
20.01.2019 14:00:00 0,1 -8,8 5,0 -0,6 1,0 6,0 8 5 12 7 ENE 1017,8 60 60 0,0
20.01.2019 13:00:00 -0,8 -8,6 4,5 -0,8 1,0 6,0 8 4 11 6 ENE 1017,9 46 60 0,0
20.01.2019 12:00:00 -1,9 -8,6 1,7 -1,0 1,0 6,0 6 3 8 5 E 1018,0 75 60 0,0
20.01.2019 11:00:00 -4,3 -8,8 -1,8 -1,4 1,0 6,0 4 2 6 3 E 1018,2 43 60 0,0
20.01.2019 10:00:00 -4,7 -9,5 -4,1 -1,8 1,1 6,0 5 3 6 3 ENE 1017,6 47 49 0,0
20.01.2019 09:00:00 -7,4 -9,3 -9,3 -1,9 1,1 6,0 2 1 6 3 E 1017,6 45 0 0,0
20.01.2019 08:00:00 -8,6 -9,7 -11,4 -1,7 1,1 6,0 4 2 6 4 ENE 1017,2 39 0 0,0
20.01.2019 07:00:00 -8,8 -10,1 -12,2 -1,6 1,2 6,1 6 3 8 5 E 1016,9 41 0 0,0
20.01.2019 06:00:00 -8,1 -9,3 -11,0 -1,4 1,2 6,1 4 2 6 3 E 1016,6 44 0 0,0
20.01.2019 05:00:00 -8,1 -10,4 -11,4 -1,3 1,2 6,1 6 3 8 5 ENE 1016,7 60 0 0,0
20.01.2019 04:00:00 -5,1 -9,8 -9,2 -1,2 1,3 6,1 4 2 9 5 SE 1016,1 66 0 0,0
20.01.2019 03:00:00 -4,8 -10,0 -8,2 -1,0 1,3 6,1 4 2 9 5 SSE 1016,1 66 0 0,0
20.01.2019 02:00:00 -4,7 -10,0 -9,0 -0,9 1,3 6,1 4 2 7 4 ESE 1016,0 65 0 0,0
20.01.2019 01:00:00 -4,7 -9,8 -8,5 -0,8 1,4 6,1 6 4 10 5 E 1016,1 75 0 0,0
20.01.2019 00:00:00 -4,2 -9,5 -8,8 -0,6 1,4 6,1 9 5 14 8 E 1016,0 65 0 0,0
19.01.2019 23:00:00 -4,1 -9,0 -8,0 -0,5 1,4 6,1 7 4 13 7 ENE 1016,0 66 0 0,0
19.01.2019 22:00:00 -3,9 -8,4 -7,9 -0,4 1,4 6,1 6 3 14 8 E 1016,1 61 0 0,0
19.01.2019 21:00:00 -3,6 -8,1 -7,5 -0,3 1,5 6,1 7 4 14 8 E 1015,9 56 0 0,0
19.01.2019 20:00:00 -3,2 -7,6 -6,6 -0,2 1,5 6,1 10 5 16 8 E 1015,9 66 0 0,0
19.01.2019 19:00:00 -2,8 -6,9 -7,0 -0,1 1,5 6,1 9 5 16 8 E 1016,1 63 0 0,0
19.01.2019 18:00:00 -2,6 -6,7 -6,8 0,0 1,5 6,1 6 3 13 7 E 1016,1 74 0 0,0
19.01.2019 17:00:00 -1,7 -5,6 -4,5 0,0 1,5 6,1 8 5 13 7 ENE 1016,0 51 11 0,0
19.01.2019 16:00:00 -0,9 -5,6 -2,0 0,0 1,5 6,1 10 6 19 10 E 1016,1 54 52 0,0
19.01.2019 15:00:00 -0,2 -5,8 0,5 -0,1 1,5 6,1 11 6 21 11 E 1016,3 63 60 0,0
19.01.2019 14:00:00 -0,5 -6,3 -0,1 -0,1 1,6 6,1 13 7 20 11 ESE 1017,1 64 60 0,0
19.01.2019 13:00:00 -0,8 -6,6 0,0 -0,1 1,6 6,2 10 5 15 8 E 1017,8 58 60 0,0
19.01.2019 12:00:00 -1,2 -6,5 -1,5 -0,1 1,6 6,2 8 4 20 11 ESE 1018,6 75 55 0,0
19.01.2019 11:00:00 -1,8 -6,6 -1,5 -0,2 1,6 6,2 5 3 13 7 SE 1019,1 63 31 0,0
19.01.2019 10:00:00 -3,8 -7,0 -5,2 -0,2 1,7 6,2 6 3 10 6 E 1019,5 52 4 0,0
19.01.2019 09:00:00 -4,1 -7,4 -6,4 -0,2 1,7 6,2 7 4 11 6 E 1019,6 46 0 0,0
19.01.2019 08:00:00 -4,3 -7,1 -8,0 -0,1 1,7 6,2 5 3 11 6 ESE 1019,3 60 0 0,0
19.01.2019 07:00:00 -4,7 -6,8 -7,6 -0,1 1,8 6,2 5 3 8 4 E 1019,5 45 0 0,0
19.01.2019 06:00:00 -4,9 -6,8 -8,0 0,0 1,8 6,2 4 2 12 7 ENE 1019,7 42 0 0,0
19.01.2019 05:00:00 -4,8 -6,6 -7,6 0,1 1,9 6,2 6 4 12 7 ESE 1020,2 38 0 0,0
19.01.2019 04:00:00 -5,3 -6,2 -7,6 0,1 1,9 6,2 4 2 8 4 E 1020,6 16 0 0,0
19.01.2019 03:00:00 -4,3 -5,9 -7,2 0,2 1,9 6,2 4 2 6 4 E 1020,8 34 0 0,0
19.01.2019 02:00:00 -3,9 -5,5 -6,4 0,2 2,0 6,2 4 2 6 3 ENE 1020,8 36 0 0,0
19.01.2019 01:00:00 -4,2 -5,5 -6,6 0,3 2,0 6,2 4 2 9 5 E 1021,3 23 0 0,0
19.01.2019 00:00:00 -4,0 -5,6 -6,4 0,3 2,0 6,2 6 4 8 5 E 1021,3 24 0 0,0
18.01.2019 23:00:00 -3,3 -5,1 -5,6 0,4 2,1 6,2 5 3 6 4 E 1021,2 30 0 0,0
18.01.2019 22:00:00 -3,0 -4,8 -5,1 0,4 2,1 6,2 4 2 6 3 ENE 1021,2 29 0 0,0
18.01.2019 21:00:00 -3,1 -4,8 -5,8 0,5 2,2 6,2 4 2 7 4 E 1021,2 33 0 0,0
18.01.2019 20:00:00 -3,2 -5,0 -6,0 0,5 2,2 6,2 5 3 7 4 E 1021,4 29 0 0,0
18.01.2019 19:00:00 -3,0 -4,8 -6,1 0,5 2,2 6,2 4 2 5 3 E 1021,6 32 0 0,0
18.01.2019 18:00:00 -2,4 -4,9 -5,0 0,6 2,3 6,2 3 2 6 3 SSE 1021,6 34 0 0,0
18.01.2019 17:00:00 -1,7 -3,6 -4,7 0,9 2,3 6,2 5 3 10 6 SSW 1021,3 23 0 0,0
18.01.2019 16:00:00 -0,4 -4,6 -1,3 1,2 2,3 6,2 6 3 12 7 S 1021,2 51 57 0,0
18.01.2019 15:00:00 0,6 -5,1 1,7 1,3 2,3 6,2 6 4 11 6 S 1020,7 43 60 0,0
18.01.2019 14:00:00 1,0 -4,9 2,9 1,0 2,3 6,2 5 3 14 8 SSW 1021,0 57 53 0,0
18.01.2019 13:00:00 0,6 -4,5 1,2 0,8 2,3 6,2 9 5 16 8 SW 1021,3 43 60 0,0
18.01.2019 12:00:00 0,2 -3,8 0,4 0,7 2,4 6,3 9 5 13 7 WSW 1021,3 36 60 0,0
18.01.2019 11:00:00 -1,1 -4,3 -1,1 0,7 2,4 6,3 5 3 8 5 W 1021,0 17 60 0,0
18.01.2019 10:00:00 -2,2 -4,9 -3,2 0,7 2,5 6,3 3 2 7 4 WSW 1020,7 14 46 0,0
18.01.2019 09:00:00 -4,2 -4,9 -5,8 0,7 2,5 6,3 7 4 10 5 W 1020,5 4,2 0 0,0
18.01.2019 08:00:00 -3,6 -4,4 -7,2 0,8 2,6 6,3 4 2 7 4 W 1019,5 7 0 0,0
18.01.2019 07:00:00 -3,2 -4,3 -6,7 1,1 2,6 6,3 3 2 10 5 S 1018,7 14 0 0,0
18.01.2019 06:00:00 -1,6 -2,8 -2,3 1,2 2,6 6,4 6 3 16 9 NNE 1017,9 15 0 0,0
18.01.2019 05:00:00 -1,3 -2,6 -1,5 1,2 2,7 6,4 8 5 26 14 NW 1016,9 25 0 0,0
18.01.2019 04:00:00 -1,1 -2,6 -1,3 1,2 2,7 6,4 11 6 28 15 WNW 1016,0 26 0 0,0
18.01.2019 03:00:00 -1,1 -2,4 -1,3 1,3 2,7 6,4 16 9 29 16 WNW 1014,9 20 0 0,0
18.01.2019 02:00:00 -0,8 -2,2 -1,1 1,3 2,8 6,4 17 9 31 17 WNW 1013,8 19 0 0,0
18.01.2019 01:00:00 -0,7 -1,9 -0,8 1,3 2,8 6,4 17 9 31 17 W 1013,2 13 0 0,1
18.01.2019 00:00:00 -0,7 -2,2 -0,9 1,3 2,9 6,4 13 7 37 20 W 1012,4 22 0 0,0
17.01.2019 23:00:00 -0,5 -1,7 -0,8 1,4 2,9 6,4 18 10 34 19 W 1011,6 20 0 0,0
17.01.2019 22:00:00 -0,4 -1,8 -0,8 1,4 3,0 6,4 21 11 41 22 W 1010,5 24 0 0,4
17.01.2019 21:00:00 -0,4 -1,1 -0,4 1,4 3,1 6,4 18 10 34 19 W 1009,1 4,5 0 0,3
17.01.2019 20:00:00 -0,3 -1,1 -0,3 1,5 3,1 6,4 26 14 45 24 W 1008,0 18 0 0,3
17.01.2019 19:00:00 -0,2 -1,3 -0,3 1,6 3,2 6,4 24 13 42 23 W 1007,4 21 0 0,5
17.01.2019 18:00:00 0,1 -0,9 -0,1 1,9 3,3 6,4 18 10 39 21 W 1006,3 25 0 0,4
17.01.2019 17:00:00 0,6 -0,6 0,2 2,2 3,3 6,4 15 8 44 24 W 1005,3 31 0 0,0
17.01.2019 16:00:00 0,8 0,0 0,6 2,5 3,4 6,4 19 11 35 19 W 1004,0 11 0 0,5
17.01.2019 15:00:00 1,5 0,4 1,3 2,7 3,3 6,4 21 12 45 24 W 1002,4 14 0 1,2
17.01.2019 14:00:00 2,2 1,3 2,2 3,1 3,3 6,4 23 12 41 22 W 1001,2 10 0 1,2
17.01.2019 13:00:00 2,2 1,4 1,9 3,1 3,3 6,4 24 13 40 22 WSW 1001,2 4,0 0 1,8
17.01.2019 12:00:00 2,8 1,8 3,0 3,1 3,2 6,4 17 9 31 17 SW 1001,6 17 0 0,2
17.01.2019 11:00:00 3,0 1,9 3,0 2,8 3,2 6,4 15 8 37 20 WSW 1002,5 20 0 0,0
17.01.2019 10:00:00 2,7 1,9 2,5 2,4 3,2 6,4 18 10 31 17 WSW 1002,9 13 0 0,1
17.01.2019 09:00:00 2,3 1,6 2,0 2,3 3,2 6,4 16 9 33 18 SW 1002,7 9 0 0,9

tt = Température de l'air
td = dewpoint
tt 5cm = Température de l'air 5cm
tt -5cm = Température de l'air -5cm
tt -20cm = Température de l'air -20cm
tt -100cm = Température de l'air -100cm
ff = Vitesse du vent
fx = gusts
dd = Direction du vent
ppp = reduced air pressure
vv = visibility
sd = Ensoleillement
rr = Quantités de précipitations

stations d'obs. à proximité